SL-24 R/B, 40541

Orbit data source: Space-Track

SL-24 R/B, 40541 is space debris in SSO originally from a launch on Wed, 25 Mar 2015 UTC launched from the Orenburg, Russia (OREN). Debris objects in space refer to the collection of defunct objects orbiting the Earth. Examples of debris include non-operational satellites, rocket bodies, and fragments generated from explosions, collisions, or faulty payload assembly.

Loading next visibility...
Identifier
40541, 2015-014C
Orbit
SSO
Last TLE update
7 hours ago
Origin
Manufacturer
Yuzhnoe
Mission
Spacecraft
Bus & Motor
15A18-BR, Unknown motor
Mass
~1,000 kg wet, ~1,000 kg dry
Launch date (UTC)
2015-03-25 (10 years ago)
Launch vehicle
Unknown
Launch site
Orenburg, Russia (OREN)
Object type
Payload
Rocket body
Debris
Shape & HBR
Cyl, 3 m
Radar Cross Section
10.603 m², Large (>1 m²)

Expand to show TLE details & history

TLE from 7 hours ago
0 SL-24 R/B
1 40541U 15014C   25186.61555377  .00000274  00000-0  74352-4 0  9994
2 40541  97.3721  71.9005 0612448 138.7407 226.1749 13.77431109516078
Epoch: 2025-07-05T14:46Z
TLE epoch observation values (Epoch: 2025-07-05T14:46:23.845Z)
Latitude
-0.00002°
Longitude
-73.5499°
Altitude
1,301.228 km
Speed
7.045 km/s
True Right ascension
04h 47m 36s
True Declination
0° 00' 00"
Sunlit
Object was in daylight at epoch
Visualization orbit readout
Latitude
77.72424°
Longitude
142.94563°
Altitude
621.142 km
Speed
7.741 km/s
Apparent Right ascension
21h 30m 20s
Apparent Declination
24° 22' 41"
Sunlit
Object is in daylight
Visualization observer readout
Local Sidereal Time
10:09:46
Azimuth
9.912° NNE
Elevation
-25.052°
Doppler factor
1
Orbital elements
Apogee altitude
1,420.199 km
Perigee altitude
520.109 km
Semi-major axis
7,348.291 km
Eccentricity
0.06124
Inclination
97.3721°
RAAN
71.9005°
Arg. of periapsis
138.7407°
True anomaly
Unknown
Mean anomaly
226.1749°
Eccentric anomaly
Unknown
Mean motion
3.44559 °/min
Orbital period
104.48 mins
BSTAR
0.000074352
Loading maneuver chart data...
Loading SW <> Apogee altitude chart data...
Loading historical data...
Loading historical data...
Loading historical data...
Loading historical data...
Loading historical data...
Loading historical data...
Loading historical data...
Other satellites on launch #14 in the year 2015 (2015-03-25 UTC)

SL-24 R/B Visibility forecast

Observer location: undefined°, undefined°

Span
Click to sort rows by Start time (UTC) header in descending order
Start Az.
Max El. time (UTC)
Max El. Az.
Max El.
End time (UTC)
End Az.
7 mins2025-07-06 05:18:36.944Z8.66° NNE2025-07-06 05:22:36.944Z225.827° WSW42.61°2025-07-06 05:25:36.944Z197.89° SSW
8 mins2025-07-06 15:19:36.944Z120.916° SE2025-07-06 15:23:36.944Z77.219° E25.541°2025-07-06 15:27:36.944Z20.856° NNE
9 mins2025-07-06 17:02:36.944Z197.881° SSW2025-07-06 17:07:36.944Z270.031° WNW34.252°2025-07-06 17:11:36.944Z327.444° NNW
|